| time (UTC) | temp C | wind direction | speed KPH | gust KPH | rain 1hr cm | rain 24hr cm | rain mn cm | humidity % | barometer mb |
| 20260505041559 | 1 | 318 | 6.4 | 9.7 | 0.00 | 0.00 | 0.00 | 63 | 1009.6 |
| 20260505040059 | 1 | 321 | 6.4 | 9.7 | 0.00 | 0.00 | 0.00 | 63 | 1009.6 |
| 20260505034557 | 1 | 322 | 6.4 | 9.7 | 0.00 | 0.03 | 0.00 | 62 | 1009.6 |
| 20260505033057 | 2 | 322 | 6.4 | 14.5 | 0.00 | 0.03 | 0.00 | 59 | 1009.6 |
| 20260505031605 | 2 | 329 | 9.7 | 14.5 | 0.00 | 0.03 | 0.00 | 57 | 1009.5 |
| 20260505024605 | 2 | 336 | 14.5 | 20.9 | 0.00 | 0.03 | 0.00 | 56 | 1009.3 |
| 20260505023055 | 3 | 338 | 17.7 | 24.1 | 0.00 | 0.03 | 0.00 | 55 | 1009.0 |
| 20260505021600 | 3 | 341 | 17.7 | 27.4 | 0.00 | 0.03 | 0.00 | 55 | 1008.8 |
| 20260505014609 | 3 | 348 | 22.5 | 38.6 | 0.00 | 0.03 | 0.00 | 56 | 1008.6 |
| 20260505013057 | 3 | 5 | 25.7 | 33.8 | 0.00 | 0.03 | 0.00 | 51 | 1008.4 |
| 20260505011606 | 3 | 347 | 22.5 | 30.6 | 0.00 | 0.03 | 0.00 | 51 | 1008.3 |
| 20260505010056 | 4 | 345 | 20.9 | 32.2 | 0.00 | 0.03 | 0.00 | 47 | 1008.2 |
| 20260505004556 | 5 | 11 | 22.5 | 40.2 | 0.00 | 0.03 | 0.00 | 46 | 1008.1 |
| 20260505003055 | 5 | 346 | 27.4 | 40.2 | 0.00 | 0.03 | 0.00 | 44 | 1008.0 |
| 20260505001558 | 5 | 323 | 32.2 | 45.1 | 0.00 | 0.03 | 0.00 | 40 | 1007.9 |
| 20260505000115 | 5 | 352 | 32.2 | 43.5 | 0.00 | 0.03 | 0.00 | 40 | 1007.8 |
| 20260504234558 | 6 | 329 | 29.0 | 41.8 | 0.00 | 0.03 | 0.00 | 40 | 1007.7 |
| 20260504233108 | 6 | 317 | 29.0 | 41.8 | 0.00 | 0.03 | 0.00 | 41 | 1007.7 |
| 20260504231555 | 5 | 324 | 30.6 | 51.5 | 0.00 | 0.03 | 0.00 | 41 | 1007.7 |
| 20260504230056 | 6 | 310 | 33.8 | 53.1 | 0.00 | 0.03 | 0.00 | 44 | 1007.6 |
| 20260504224609 | 5 | 296 | 30.6 | 51.5 | 0.00 | 0.03 | 0.00 | 44 | 1007.4 |
| 20260504223131 | 6 | 327 | 33.8 | 46.7 | 0.00 | 0.03 | 0.00 | 43 | 1007.2 |
| 20260504221557 | 5 | 327 | 35.4 | 48.3 | 0.00 | 0.03 | 0.00 | 44 | 1007.2 |
| 20260504220100 | 6 | 314 | 33.8 | 45.1 | 0.00 | 0.03 | 0.00 | 43 | 1007.2 |
| 20260504214608 | 5 | 310 | 38.6 | 46.7 | 0.00 | 0.03 | 0.00 | 46 | 1007.0 |
| 20260504213105 | 5 | 338 | 35.4 | 49.9 | 0.00 | 0.03 | 0.00 | 46 | 1007.0 |
| 20260504211600 | 6 | 309 | 35.4 | 48.3 | 0.00 | 0.03 | 0.00 | 47 | 1007.0 |
| 20260504210100 | 6 | 321 | 37.0 | 51.5 | 0.00 | 0.03 | 0.00 | 47 | 1006.9 |
| 20260504204557 | 6 | 319 | 37.0 | 51.5 | 0.00 | 0.03 | 0.00 | 47 | 1006.9 |
| 20260504203111 | 5 | 320 | 35.4 | 48.3 | 0.00 | 0.03 | 0.00 | 49 | 1006.8 |
| 20260504201601 | 5 | 315 | 33.8 | 48.3 | 0.00 | 0.03 | 0.00 | 50 | 1006.8 |
| 20260504200125 | 5 | 327 | 37.0 | 49.9 | 0.00 | 0.03 | 0.00 | 49 | 1006.8 |
| 20260504194604 | 6 | 325 | 33.8 | 51.5 | 0.00 | 0.03 | 0.00 | 46 | 1006.5 |
| 20260504193155 | 5 | 291 | 32.2 | 56.3 | 0.00 | 0.03 | 0.00 | 51 | 1006.4 |
| 20260504191558 | 6 | 315 | 38.6 | 56.3 | 0.00 | 0.03 | 0.00 | 47 | 1006.4 |
| 20260504190055 | 6 | 317 | 32.2 | 56.3 | 0.00 | 0.03 | 0.00 | 43 | 1006.3 |
| 20260504184600 | 6 | 317 | 35.4 | 49.9 | 0.00 | 0.03 | 0.00 | 46 | 1006.2 |
| 20260504183057 | 6 | 339 | 37.0 | 49.9 | 0.00 | 0.03 | 0.00 | 48 | 1006.1 |
| 20260504181557 | 6 | 333 | 33.8 | 46.7 | 0.00 | 0.03 | 0.00 | 47 | 1006.0 |
| 20260504180056 | 6 | 330 | 33.8 | 48.3 | 0.00 | 0.03 | 0.00 | 45 | 1006.0 |
| 20260504174615 | 5 | 315 | 38.6 | 51.5 | 0.00 | 0.03 | 0.00 | 46 | 1006.0 |
| 20260504173100 | 6 | 305 | 30.6 | 48.3 | 0.00 | 0.03 | 0.00 | 45 | 1005.7 |
| 20260504171557 | 5 | 332 | 33.8 | 45.1 | 0.00 | 0.03 | 0.00 | 51 | 1005.7 |
| 20260504160106 | 4 | 333 | 35.4 | 56.3 | 0.00 | 0.03 | 0.00 | 51 | 1005.4 |
| 20260504150106 | 3 | 323 | 40.2 | 57.9 | 0.00 | 0.03 | 0.00 | 57 | 1005.0 |
| 20260504140109 | 3 | 326 | 32.2 | 48.3 | 0.00 | 0.03 | 0.00 | 70 | 1004.7 |
| 20260504100107 | 1 | 311 | 17.7 | 27.4 | 0.00 | 0.03 | 0.00 | 80 | 1002.5 |
| 20260504090104 | 2 | 323 | 25.7 | 37.0 | 0.00 | 0.03 | 0.00 | 75 | 1001.5 |
| 20260504081555 | 3 | 322 | 27.4 | 43.5 | 0.00 | 0.03 | 0.00 | 73 | 1001.2 |